New Orleans, LA (70145)

1:02 PM CDT on March 24, 2017 (GMT -0500)
Downtown CBD New Orleans | | Change Station
Active Advisory: Wind Advisory

Elev 28 ft 29.94 °N, 90.07 °W | Updated 3 minutes ago

Overcast
Overcast
77.2 °F
Feels Like 79 °F
N
9.8
Wind Variable Wind from SSE
Gusts 12.3 mph

Today
High -- | Low -- °F
--% Chance of Precip.
Yesterday
High -- | Low -- °F
Precip. -- in
Pressure 30.19 in
Visibility 10.0 miles
Clouds Scattered Clouds 2500 ft
Mostly Cloudy 3400 ft
Mostly Cloudy 4000 ft
Heat Index 79 °F
Dew Point 63 °F
Humidity 61%
Rainfall 0.00 in
Snow Depth Not available.
6:58 AM 7:14 PM
Waning Crescent, 14% visible
METAR KNEW 241753Z AUTO 15019G25KT 10SM SCT025 BKN034 BKN040 26/19 A3021 RMK AO2 PK WND 16028/1713 SLP223 T02560194 10261 20211 50007
Pressure 30.19 in
Visibility 10.0 miles
Clouds Scattered Clouds 2500 ft
Mostly Cloudy 3400 ft
Mostly Cloudy 4000 ft
Heat Index 79 °F
Dew Point 63 °F
Humidity 61%
Rainfall 0.00 in
Snow Depth Not available.
6:58 AM 7:14 PM
Waning Crescent, 14% visible
METAR KNEW 241753Z AUTO 15019G25KT 10SM SCT025 BKN034 BKN040 26/19 A3021 RMK AO2 PK WND 16028/1713 SLP223 T02560194 10261 20211 50007

Get Your Daily Forecast Email!

Thanks for signing up!

Be on the lookout for a verification email in your inbox.

You'll start receiving severe weather alerts in your inbox..

×

10-Day Weather Forecast

Almanac

Astronomy

Mar. 24, 2017 Rise Set
Actual Time
Civil Twilight
Nautical Twilight
Astronomical Twilight
Moon
Length of Visible Light
Length of Day
Tomorrow will be .
, % of the Moon is Illuminated

Today's Extremes

State Highs State Lows

Community

WunderPhotos

Upload Photos

1,962,540 photos uploaded!

WunderBlog® & News

Nearby

Air Quality

  Air Quality AQ Index Pollutant
Not available.

Snow Depth

Station Depth Elevation

Earthquake Activity

City Distance Mag. Time & Date
Minimum magnitude displayed is 2.5.

Earthquake Activity

City Distance Mag. Time & Date
Minimum magnitude displayed is 2.5.

Coastal Water Temperatures

Place Temperature

Stations

Nearby Weather Stations

Station Location Temp. Windchill Dew Point Humidity Wind Precip. Elev Updated Type
                   

Watches & Warnings

Wind Advisory
Issued: 10:41 AM CDT Mar. 24, 2017 – National Weather Service

... Wind Advisory remains in effect until 7 PM CDT this evening...

* timing... through 7 PM

* winds... 25 to 30 mph with gusts up to 40 mph

* impacts... difficult driving conditions for high profile
vehicles especially on east-west roadways and on bridges and
overpasses. Loose lawn objects along with trash cans will be
blown around.

Precautionary/preparedness actions...

A Wind Advisory means that winds of 26 to 39 mph are expected.
Winds this strong can make driving difficult... especially for
high profile vehicles. Use extra caution.